COSMOS 2242

Last updated on Thu Nov 21 2024 00:02:12 GMT+0000 (Coordinated Universal Time)

1 22626U 93024A 24325.43078238 .00003068 00000+0 28791-3 0 9993 2 22626 82.5205 359.3021 0018812 99.2948 261.0401 14.93541499709522
UTC large
Height (km)
Speed (km/s)
/
Latitude / Longitude
Inclination (degrees)
Orbital Period (minutes)
Azimuth
Elevation
Range (km)
Doppler Factor

Next 0 passes for location: London (51.5072 / 0.1276)

Sorry there are no passes over London.